| time (UTC) | temp F | wind direction | speed MPH | gust MPH | rain 1hr in | rain 24hr in | rain mn in | humidity % | barometer mb |
| 20260504035535 | 41 | 0 | 0.0 | 1.0 | 0.00 | 0.00 | 0.00 | 84 | 1012.9 |
| 20260504035038 | 41 | 265 | 0.0 | 1.0 | 0.00 | 0.00 | 0.00 | 83 | 1012.8 |
| 20260504034546 | 41 | 0 | 0.0 | 1.0 | 0.00 | 0.00 | 0.00 | 83 | 1012.8 |
| 20260504034035 | 41 | 278 | 0.0 | 1.0 | 0.00 | 0.00 | 0.00 | 83 | 1012.6 |
| 20260504033534 | 41 | 0 | 0.0 | 1.0 | 0.00 | 0.00 | 0.00 | 82 | 1012.7 |
| 20260504033053 | 42 | 0 | 0.0 | 0.0 | 0.00 | 0.00 | 0.00 | 82 | 1012.8 |
| 20260504032531 | 42 | 0 | 0.0 | 1.0 | 0.00 | 0.00 | 0.00 | 81 | 1012.6 |
| 20260504032034 | 42 | 0 | 0.0 | 1.0 | 0.00 | 0.00 | 0.00 | 81 | 1012.5 |
| 20260504031558 | 42 | 260 | 0.0 | 1.0 | 0.00 | 0.00 | 0.00 | 80 | 1012.5 |
| 20260504031034 | 43 | 0 | 0.0 | 1.0 | 0.00 | 0.00 | 0.00 | 80 | 1012.5 |
| 20260504030532 | 43 | 0 | 0.0 | 1.0 | 0.00 | 0.00 | 0.00 | 80 | 1012.5 |
| 20260504030049 | 43 | 292 | 0.0 | 2.0 | 0.00 | 0.00 | 0.00 | 79 | 1012.4 |
| 20260504025532 | 43 | 330 | 0.0 | 2.0 | 0.00 | 0.00 | 0.00 | 78 | 1012.5 |
| 20260504025034 | 44 | 290 | 0.0 | 2.0 | 0.00 | 0.00 | 0.00 | 77 | 1012.5 |
| 20260504024555 | 44 | 342 | 0.0 | 1.0 | 0.00 | 0.00 | 0.00 | 77 | 1012.6 |
| 20260504024035 | 44 | 0 | 0.0 | 3.0 | 0.00 | 0.00 | 0.00 | 78 | 1012.5 |
| 20260504023534 | 44 | 260 | 0.0 | 3.0 | 0.00 | 0.00 | 0.00 | 76 | 1012.5 |
| 20260504023053 | 44 | 280 | 0.0 | 3.0 | 0.00 | 0.00 | 0.00 | 76 | 1012.7 |
| 20260504022536 | 44 | 270 | 0.0 | 2.0 | 0.00 | 0.00 | 0.00 | 76 | 1012.6 |
| 20260504022037 | 44 | 265 | 0.0 | 2.0 | 0.00 | 0.00 | 0.00 | 76 | 1012.5 |
| 20260504021552 | 45 | 330 | 0.0 | 1.0 | 0.00 | 0.00 | 0.00 | 76 | 1012.4 |
| 20260504021036 | 45 | 274 | 0.0 | 1.0 | 0.00 | 0.00 | 0.00 | 75 | 1012.5 |
| 20260504020534 | 45 | 0 | 0.0 | 1.0 | 0.00 | 0.00 | 0.00 | 74 | 1012.5 |
| 20260504020050 | 45 | 0 | 0.0 | 1.0 | 0.00 | 0.00 | 0.00 | 74 | 1012.4 |
| 20260504015534 | 46 | 0 | 0.0 | 1.0 | 0.00 | 0.00 | 0.00 | 73 | 1012.4 |
| 20260504015034 | 46 | 0 | 0.0 | 1.0 | 0.00 | 0.00 | 0.00 | 72 | 1012.4 |
| 20260504014549 | 46 | 0 | 0.0 | 2.0 | 0.00 | 0.00 | 0.00 | 73 | 1012.4 |
| 20260504014033 | 47 | 0 | 0.0 | 2.0 | 0.00 | 0.00 | 0.00 | 72 | 1012.3 |
| 20260504013534 | 47 | 1 | 0.0 | 2.0 | 0.00 | 0.00 | 0.00 | 70 | 1012.4 |
| 20260504013048 | 47 | 0 | 0.0 | 2.0 | 0.00 | 0.00 | 0.00 | 70 | 1012.3 |
| 20260504012535 | 47 | 283 | 0.0 | 2.0 | 0.00 | 0.00 | 0.00 | 69 | 1012.2 |
| 20260504012031 | 48 | 265 | 0.0 | 1.0 | 0.00 | 0.00 | 0.00 | 69 | 1012.2 |
| 20260504011551 | 48 | 0 | 0.0 | 1.0 | 0.00 | 0.00 | 0.00 | 69 | 1012.2 |
| 20260504011035 | 48 | 0 | 0.0 | 1.0 | 0.00 | 0.00 | 0.00 | 67 | 1012.2 |
| 20260504010535 | 49 | 276 | 0.0 | 1.0 | 0.00 | 0.00 | 0.00 | 67 | 1012.2 |
| 20260504010047 | 49 | 275 | 0.0 | 1.0 | 0.00 | 0.00 | 0.00 | 65 | 1012.1 |
| 20260504005534 | 49 | 316 | 0.0 | 1.0 | 0.00 | 0.00 | 0.00 | 65 | 1011.9 |
| 20260504005034 | 50 | 0 | 0.0 | 1.0 | 0.00 | 0.00 | 0.00 | 65 | 1011.8 |
| 20260504004600 | 50 | 0 | 0.0 | 1.0 | 0.00 | 0.00 | 0.00 | 65 | 1011.7 |
| 20260504004033 | 51 | 0 | 0.0 | 1.0 | 0.00 | 0.00 | 0.00 | 63 | 1011.7 |
| 20260504003534 | 51 | 321 | 0.0 | 1.0 | 0.00 | 0.00 | 0.00 | 62 | 1011.6 |
| 20260504003046 | 52 | 0 | 0.0 | 1.0 | 0.00 | 0.00 | 0.00 | 60 | 1011.6 |
| 20260504002534 | 52 | 351 | 0.0 | 1.0 | 0.00 | 0.00 | 0.00 | 58 | 1011.5 |
| 20260504002038 | 53 | 351 | 0.0 | 1.0 | 0.00 | 0.00 | 0.00 | 57 | 1011.4 |
| 20260504001549 | 53 | 0 | 0.0 | 2.0 | 0.00 | 0.00 | 0.00 | 54 | 1011.4 |
| 20260504001034 | 54 | 0 | 0.0 | 2.0 | 0.00 | 0.00 | 0.00 | 53 | 1011.4 |
| 20260504000534 | 54 | 338 | 0.0 | 2.0 | 0.00 | 0.00 | 0.00 | 51 | 1011.3 |
| 20260504000051 | 55 | 0 | 0.0 | 1.0 | 0.00 | 0.00 | 0.00 | 50 | 1011.1 |
| 20260503235534 | 55 | 0 | 0.0 | 1.0 | 0.00 | 0.00 | 0.00 | 50 | 1011.2 |
| 20260503235032 | 56 | 0 | 0.0 | 1.0 | 0.00 | 0.00 | 0.00 | 45 | 1011.0 |
| 20260503234553 | 57 | 266 | 0.0 | 1.0 | 0.00 | 0.00 | 0.00 | 44 | 1010.9 |
| 20260503234035 | 57 | 0 | 0.0 | 4.0 | 0.00 | 0.00 | 0.00 | 42 | 1010.9 |
| 20260503233534 | 58 | 0 | 0.0 | 5.0 | 0.00 | 0.00 | 0.00 | 40 | 1010.8 |
| 20260503233047 | 58 | 275 | 0.0 | 5.0 | 0.00 | 0.00 | 0.00 | 40 | 1010.7 |
| 20260503232531 | 58 | 295 | 0.0 | 6.0 | 0.00 | 0.00 | 0.00 | 41 | 1010.8 |
| 20260503232031 | 58 | 285 | 2.0 | 6.0 | 0.00 | 0.00 | 0.00 | 39 | 1010.8 |
| 20260503231553 | 58 | 279 | 1.0 | 5.0 | 0.00 | 0.00 | 0.00 | 41 | 1010.9 |
| 20260503231034 | 58 | 0 | 0.0 | 4.0 | 0.00 | 0.00 | 0.00 | 41 | 1010.9 |
| 20260503230533 | 59 | 293 | 1.0 | 6.0 | 0.00 | 0.00 | 0.00 | 40 | 1010.8 |
| 20260503230051 | 59 | 102 | 0.0 | 6.0 | 0.00 | 0.00 | 0.00 | 39 | 1010.8 |
| 20260503225538 | 59 | 195 | 2.0 | 6.0 | 0.00 | 0.00 | 0.00 | 37 | 1010.7 |
| 20260503225032 | 60 | 203 | 0.0 | 5.0 | 0.00 | 0.00 | 0.00 | 38 | 1010.8 |
| 20260503224548 | 60 | 257 | 2.0 | 6.0 | 0.00 | 0.00 | 0.00 | 36 | 1010.8 |
| 20260503224034 | 60 | 319 | 1.0 | 8.0 | 0.00 | 0.00 | 0.00 | 35 | 1010.8 |
| 20260503223532 | 61 | 229 | 3.0 | 12.0 | 0.00 | 0.00 | 0.00 | 35 | 1010.8 |
| 20260503223044 | 61 | 297 | 2.0 | 12.0 | 0.00 | 0.00 | 0.00 | 34 | 1010.9 |
| 20260503222531 | 62 | 278 | 2.0 | 8.0 | 0.00 | 0.00 | 0.00 | 34 | 1010.7 |
| 20260503222038 | 62 | 253 | 1.0 | 8.0 | 0.00 | 0.00 | 0.00 | 33 | 1010.7 |
| 20260503221543 | 62 | 266 | 1.0 | 8.0 | 0.00 | 0.00 | 0.00 | 33 | 1010.6 |
| 20260503221034 | 61 | 356 | 3.0 | 11.0 | 0.00 | 0.00 | 0.00 | 33 | 1010.6 |
| 20260503220534 | 61 | 270 | 5.0 | 11.0 | 0.00 | 0.00 | 0.00 | 32 | 1010.7 |
| 20260503220046 | 61 | 317 | 4.0 | 11.0 | 0.00 | 0.00 | 0.00 | 32 | 1010.7 |
| 20260503215534 | 61 | 296 | 4.0 | 11.0 | 0.00 | 0.00 | 0.00 | 32 | 1010.8 |
| 20260503215033 | 62 | 279 | 5.0 | 10.0 | 0.00 | 0.00 | 0.00 | 31 | 1010.6 |
| 20260503214539 | 63 | 280 | 3.0 | 11.0 | 0.00 | 0.00 | 0.00 | 32 | 1010.5 |
| 20260503214032 | 62 | 195 | 2.0 | 11.0 | 0.00 | 0.00 | 0.00 | 32 | 1010.3 |
| 20260503213532 | 62 | 271 | 3.0 | 8.0 | 0.00 | 0.00 | 0.00 | 32 | 1010.3 |
| 20260503213052 | 62 | 283 | 3.0 | 7.0 | 0.00 | 0.00 | 0.00 | 30 | 1010.4 |
| 20260503212536 | 62 | 291 | 2.0 | 7.0 | 0.00 | 0.00 | 0.00 | 32 | 1010.2 |
| 20260503212034 | 62 | 227 | 2.0 | 10.0 | 0.00 | 0.00 | 0.00 | 33 | 1010.2 |
| 20260503211547 | 62 | 288 | 4.0 | 10.0 | 0.00 | 0.00 | 0.00 | 32 | 1010.3 |
| 20260503211033 | 62 | 272 | 4.0 | 10.0 | 0.00 | 0.00 | 0.00 | 31 | 1010.3 |
| 20260503210534 | 62 | 228 | 4.0 | 10.0 | 0.00 | 0.00 | 0.00 | 31 | 1010.4 |
| 20260503210044 | 62 | 2 | 4.0 | 9.0 | 0.00 | 0.00 | 0.00 | 30 | 1010.4 |
| 20260503205533 | 62 | 297 | 3.0 | 11.0 | 0.00 | 0.00 | 0.00 | 32 | 1010.4 |
| 20260503205034 | 62 | 3 | 5.0 | 18.0 | 0.00 | 0.00 | 0.00 | 32 | 1010.3 |
| 20260503204541 | 61 | 11 | 5.0 | 18.0 | 0.00 | 0.00 | 0.00 | 32 | 1010.4 |
| 20260503204032 | 62 | 265 | 1.0 | 13.0 | 0.00 | 0.00 | 0.00 | 34 | 1010.5 |
| 20260503203536 | 61 | 328 | 1.0 | 13.0 | 0.00 | 0.00 | 0.00 | 35 | 1010.6 |
| 20260503203041 | 60 | 47 | 4.0 | 13.0 | 0.00 | 0.00 | 0.00 | 32 | 1010.7 |
| 20260503202534 | 60 | 288 | 2.0 | 13.0 | 0.00 | 0.00 | 0.00 | 31 | 1010.8 |
| 20260503202037 | 61 | 277 | 4.0 | 11.0 | 0.00 | 0.00 | 0.00 | 34 | 1010.7 |
| 20260503201541 | 60 | 269 | 4.0 | 11.0 | 0.00 | 0.00 | 0.00 | 31 | 1010.7 |
| 20260503201033 | 61 | 330 | 4.0 | 11.0 | 0.00 | 0.00 | 0.00 | 32 | 1010.9 |
| 20260503200533 | 61 | 263 | 5.0 | 11.0 | 0.00 | 0.00 | 0.00 | 32 | 1011.0 |
| 20260503200043 | 61 | 343 | 5.0 | 11.0 | 0.00 | 0.00 | 0.00 | 32 | 1011.0 |
| 20260503195533 | 60 | 56 | 4.0 | 11.0 | 0.00 | 0.00 | 0.00 | 37 | 1011.0 |
| 20260503195031 | 60 | 286 | 3.0 | 9.0 | 0.00 | 0.00 | 0.00 | 35 | 1011.1 |
| 20260503194544 | 60 | 337 | 3.0 | 10.0 | 0.00 | 0.00 | 0.00 | 35 | 1011.0 |
| 20260503194033 | 59 | 290 | 3.0 | 16.0 | 0.00 | 0.00 | 0.00 | 35 | 1011.3 |
| 20260503193534 | 59 | 271 | 6.0 | 16.0 | 0.00 | 0.00 | 0.00 | 33 | 1011.3 |
| 20260503193049 | 59 | 257 | 6.0 | 13.0 | 0.00 | 0.00 | 0.00 | 34 | 1011.2 |
| 20260503192532 | 60 | 285 | 2.0 | 13.0 | 0.00 | 0.00 | 0.00 | 35 | 1011.2 |
| 20260503192034 | 59 | 256 | 4.0 | 13.0 | 0.00 | 0.00 | 0.00 | 34 | 1011.3 |
| 20260503191541 | 59 | 309 | 2.0 | 13.0 | 0.00 | 0.00 | 0.00 | 38 | 1011.4 |
| 20260503191034 | 59 | 278 | 4.0 | 13.0 | 0.00 | 0.00 | 0.00 | 36 | 1011.4 |
| 20260503190534 | 59 | 316 | 4.0 | 15.0 | 0.00 | 0.00 | 0.00 | 34 | 1011.5 |
| 20260503190047 | 59 | 263 | 5.0 | 18.0 | 0.00 | 0.00 | 0.00 | 35 | 1011.5 |
| 20260503185531 | 59 | 194 | 6.0 | 18.0 | 0.00 | 0.00 | 0.00 | 35 | 1011.5 |
| 20260503185036 | 59 | 285 | 8.0 | 18.0 | 0.00 | 0.00 | 0.00 | 33 | 1011.5 |
| 20260503184601 | 59 | 300 | 5.0 | 13.0 | 0.00 | 0.00 | 0.00 | 33 | 1011.5 |
| 20260503184030 | 59 | 263 | 5.0 | 15.0 | 0.00 | 0.00 | 0.00 | 33 | 1011.6 |
| 20260503183531 | 59 | 263 | 5.0 | 15.0 | 0.00 | 0.00 | 0.00 | 36 | 1011.7 |
| 20260503183047 | 59 | 274 | 6.0 | 15.0 | 0.00 | 0.00 | 0.00 | 34 | 1011.6 |
| 20260503182541 | 58 | 289 | 3.0 | 11.0 | 0.00 | 0.00 | 0.00 | 34 | 1011.7 |
| 20260503182038 | 58 | 25 | 4.0 | 13.0 | 0.00 | 0.00 | 0.00 | 33 | 1011.8 |
| 20260503181546 | 58 | 320 | 3.0 | 17.0 | 0.00 | 0.00 | 0.00 | 35 | 1011.9 |
| 20260503181031 | 58 | 249 | 6.0 | 17.0 | 0.00 | 0.00 | 0.00 | 34 | 1011.8 |
| 20260503180533 | 58 | 336 | 4.0 | 14.0 | 0.00 | 0.00 | 0.00 | 38 | 1011.8 |
| 20260503180049 | 57 | 296 | 5.0 | 14.0 | 0.00 | 0.00 | 0.00 | 37 | 1011.8 |
| 20260503175533 | 57 | 321 | 5.0 | 14.0 | 0.00 | 0.00 | 0.00 | 36 | 1011.8 |
| 20260503175033 | 57 | 283 | 5.0 | 13.0 | 0.00 | 0.00 | 0.00 | 35 | 1011.8 |
| 20260503174600 | 57 | 264 | 5.0 | 13.0 | 0.00 | 0.00 | 0.00 | 35 | 1011.9 |
| 20260503174034 | 57 | 319 | 4.0 | 11.0 | 0.00 | 0.00 | 0.00 | 37 | 1012.1 |
| 20260503173533 | 57 | 285 | 3.0 | 19.0 | 0.00 | 0.00 | 0.00 | 36 | 1012.1 |
| 20260503173049 | 57 | 249 | 5.0 | 19.0 | 0.00 | 0.00 | 0.00 | 35 | 1012.0 |
| 20260503172533 | 57 | 37 | 7.0 | 19.0 | 0.00 | 0.00 | 0.00 | 35 | 1012.1 |
| 20260503172032 | 57 | 292 | 5.0 | 12.0 | 0.00 | 0.00 | 0.00 | 35 | 1012.0 |
| 20260503171541 | 57 | 342 | 2.0 | 10.0 | 0.00 | 0.00 | 0.00 | 40 | 1012.1 |
| 20260503171033 | 56 | 279 | 4.0 | 11.0 | 0.00 | 0.00 | 0.00 | 37 | 1012.1 |
| 20260503170534 | 56 | 330 | 4.0 | 11.0 | 0.00 | 0.00 | 0.00 | 36 | 1012.2 |
| 20260503150532 | 49 | 293 | 4.0 | 12.0 | 0.00 | 0.00 | 0.00 | 49 | 1013.2 |
| 20260503131034 | 48 | 328 | 2.0 | 12.0 | 0.00 | 0.00 | 0.00 | 54 | 1013.2 |
| 20260503130532 | 48 | 307 | 4.0 | 12.0 | 0.00 | 0.00 | 0.00 | 54 | 1013.1 |
| 20260503110535 | 44 | 0 | 2.0 | 7.0 | 0.00 | 0.00 | 0.00 | 64 | 1012.7 |
| 20260503081548 | 45 | 53 | 3.0 | 11.0 | 0.00 | 0.00 | 0.00 | 58 | 1011.3 |
| 20260503081035 | 45 | 264 | 3.0 | 8.0 | 0.00 | 0.00 | 0.00 | 58 | 1011.3 |
| 20260503080539 | 45 | 0 | 1.0 | 5.0 | 0.00 | 0.00 | 0.00 | 58 | 1011.2 |
| 20260503072533 | 46 | 289 | 3.0 | 9.0 | 0.00 | 0.01 | 0.00 | 56 | 1011.0 |
| 20260503072035 | 46 | 0 | 1.0 | 8.0 | 0.00 | 0.01 | 0.00 | 58 | 1011.0 |
| 20260503071552 | 46 | 326 | 3.0 | 8.0 | 0.00 | 0.01 | 0.00 | 57 | 1011.1 |
| 20260503071034 | 46 | 296 | 1.0 | 5.0 | 0.00 | 0.01 | 0.00 | 58 | 1011.0 |
| 20260503070533 | 47 | 0 | 0.0 | 3.0 | 0.00 | 0.01 | 0.00 | 59 | 1010.9 |
| 20260503070126 | 47 | 268 | 0.0 | 3.0 | 0.00 | 0.01 | 0.00 | 60 | 1011.1 |
| 20260503055033 | 47 | 294 | 0.0 | 3.0 | 0.00 | 0.02 | 0.00 | 57 | 1011.4 |
| 20260503054539 | 47 | 291 | 1.0 | 5.0 | 0.00 | 0.02 | 0.00 | 56 | 1011.5 |
| 20260503054034 | 48 | 38 | 1.0 | 5.0 | 0.00 | 0.02 | 0.00 | 57 | 1011.5 |
| 20260503053533 | 47 | 154 | 0.0 | 6.0 | 0.00 | 0.02 | 0.00 | 57 | 1011.5 |
| 20260503053048 | 48 | 0 | 1.0 | 6.0 | 0.00 | 0.02 | 0.00 | 57 | 1011.5 |
| 20260503052533 | 48 | 0 | 0.0 | 3.0 | 0.00 | 0.02 | 0.00 | 57 | 1011.5 |
| 20260503052033 | 48 | 252 | 0.0 | 3.0 | 0.00 | 0.02 | 0.00 | 57 | 1011.6 |
| 20260503051543 | 48 | 0 | 0.0 | 3.0 | 0.00 | 0.02 | 0.00 | 58 | 1011.6 |
| 20260503051033 | 48 | 49 | 0.0 | 5.0 | 0.00 | 0.02 | 0.00 | 57 | 1011.5 |
| 20260503050536 | 48 | 22 | 1.0 | 5.0 | 0.00 | 0.02 | 0.00 | 57 | 1011.7 |
| 20260503050047 | 48 | 139 | 0.0 | 4.0 | 0.00 | 0.02 | 0.00 | 57 | 1011.8 |
| 20260503045533 | 48 | 337 | 1.0 | 4.0 | 0.00 | 0.02 | 0.00 | 58 | 1011.7 |
| 20260503045034 | 47 | 302 | 0.0 | 4.0 | 0.00 | 0.02 | 0.00 | 59 | 1011.8 |
| 20260503044552 | 47 | 46 | 0.0 | 4.0 | 0.00 | 0.02 | 0.00 | 61 | 1011.9 |
| 20260503044034 | 47 | 241 | 1.0 | 4.0 | 0.00 | 0.02 | 0.00 | 59 | 1011.8 |
| 20260503043533 | 47 | 0 | 0.0 | 0.0 | 0.00 | 0.02 | 0.00 | 64 | 1012.0 |
| 20260503043046 | 47 | 0 | 0.0 | 1.0 | 0.00 | 0.02 | 0.00 | 61 | 1012.0 |
| 20260503042535 | 47 | 0 | 0.0 | 1.0 | 0.00 | 0.02 | 0.00 | 58 | 1012.0 |
| 20260503042035 | 48 | 0 | 0.0 | 1.0 | 0.00 | 0.02 | 0.00 | 58 | 1012.0 |
| 20260503041546 | 48 | 4 | 0.0 | 1.0 | 0.00 | 0.02 | 0.00 | 58 | 1012.1 |
| 20260503041035 | 48 | 75 | 0.0 | 1.0 | 0.00 | 0.02 | 0.00 | 58 | 1012.2 |
| 20260503040534 | 48 | 0 | 0.0 | 4.0 | 0.00 | 0.02 | 0.00 | 59 | 1012.1 |
| 20260503040047 | 48 | 0 | 0.0 | 4.0 | 0.00 | 0.02 | 0.00 | 59 | 1012.1 |